Wind_Speed
17 16 23 25 27 29 27 25 30 25 17 14 16 20 17 16 18 18 14 14 9 7 4 3 4 6 9 11 14 16 18 17 17 17 18 20 22 26 28 31 31 29 29 31
17 20 29 23 22 19 27 28 28 24 22 12 18 22 20 20 19 16 15 11 9 7 4 4 5 8 11 12 13 15 17 19 19 19 20 22 23 27 25 29 29 31 30 28
25 25 12 21 17 18 23 27 24 22 25 22 19 24 21 19 18 16 8 11 9 5 1 4 8 10 12 13 15 16 17 19 20 20 22 23 25 28 31 26 27 28 34 35
19 22 23 11 17 21 20 24 21 25 21 17 22 17 19 23 10 11 13 12 11 6 3 7 9 13 15 15 16 17 18 20 19 19 21 21 25 27 25 31 26 28 33 33
15 15 21 28 28 12 19 18 23 27 22 21 19 10 13 18 18 17 16 12 9 4 5 7 10 13 14 16 19 20 21 21 21 21 20 21 24 28 30 33 29 28 31 32
16 3 9 25 17 15 12 13 18 20 18 16 21 18 13 13 17 19 16 12 6 4 6 8 11 13 15 17 19 21 22 24 22 22 22 23 25 27 31 30 31 28 26 31
13 17 6 9 15 20 18 8 4 5 8 11 15 12 19 5 8 18 17 13 4 5 8 9 11 13 17 19 21 23 23 25 25 24 24 24 26 28 32 36 33 27 24 26
10 7 19 20 19 12 26 19 6 5 5 8 12 6 7 9 17 14 12 8 4 7 8 10 12 16 19 22 24 24 26 26 27 27 28 28 27 26 31 38 34 27 25 25
5 9 14 12 17 20 10 21 24 15 16 10 7 10 10 9 9 10 9 5 7 8 9 11 12 16 19 22 23 25 27 27 28 30 29 30 29 26 31 37 30 28 24 23
5 3 7 11 9 15 16 14 16 7 5 10 11 16 8 14 11 10 9 7 8 10 11 12 13 18 20 21 23 25 25 28 29 30 28 30 33 33 24 26 26 25 23 25
3 4 4 3 9 5 12 9 6 6 8 6 11 2 6 12 11 9 7 8 9 10 10 11 12 18 19 22 23 25 27 28 31 32 31 33 37 36 26 13 19 23 24 26
9 4 6 12 4 4 9 10 4 3 6 7 9 1 7 11 10 3 5 5 7 8 10 11 13 17 20 23 25 25 29 29 29 29 30 32 35 35 29 19 16 16 21 24
8 7 8 8 8 6 7 7 7 5 5 11 9 2 8 6 5 6 4 7 7 9 11 12 13 14 19 22 24 26 29 32 31 31 32 30 34 33 31 26 17 13 18 18
2 5 8 6 2 2 6 9 8 5 5 10 11 9 6 6 11 12 13 8 9 10 10 11 12 13 19 21 24 26 27 31 32 32 33 34 32 31 29 26 23 17 4 18
5 6 6 2 1 1 2 6 7 8 9 6 10 11 9 12 12 10 9 9 9 9 11 12 13 13 19 21 24 26 26 28 30 30 33 33 29 27 26 29 26 22 19 11
2 3 5 8 4 6 8 9 11 11 11 13 13 11 14 13 12 9 7 7 7 9 10 11 13 15 18 21 23 23 24 25 27 29 32 32 32 32 36 31 27 28 25 24
4 4 4 7 2 4 9 6 8 10 10 7 9 9 14 13 11 12 10 8 7 9 10 12 12 14 18 20 20 22 22 23 26 28 30 31 32 33 35 32 32 34 29 28
5 5 3 1 4 5 6 8 4 7 7 8 7 10 9 6 7 9 10 8 9 10 11 12 13 16 19 18 20 20 21 24 26 28 29 30 30 30 30 30 30 29 31 33
5 4 3 3 7 7 6 6 3 3 3 6 6 7 2 6 8 9 9 9 9 9 10 10 14 16 17 18 20 19 22 25 27 27 28 29 30 29 31 31 30 33 34 31
3 2 4 5 4 4 6 6 6 3 4 5 7 7 6 6 5 6 8 9 8 10 10 12 13 15 15 19 19 21 24 25 25 26 27 28 28 29 30 30 29 29 30 29
5 3 7 6 5 5 1 6 3 4 5 6 7 8 6 2 7 8 8 8 10 11 12 11 14 13 15 16 17 19 21 23 23 24 27 29 30 29 29 27 32 27 26 27
7 7 5 4 4 3 9 1 2 3 5 4 7 9 12 12 12 10 9 9 11 12 12 12 12 14 18 19 19 19 16 18 21 23 26 29 31 28 30 30 27 29 26 26
2 2 2 4 3 4 7 7 4 3 6 6 7 8 9 10 10 9 8 9 12 13 11 11 13 16 18 20 21 21 21 18 18 19 20 23 26 30 28 30 30 29 27 26
3 5 3 6 6 6 7 7 7 7 8 8 8 9 9 10 8 9 8 8 10 12 13 14 15 17 19 19 20 20 20 18 19 19 20 20 21 23 28 28 28 30 30 24
2 8 7 4 7 8 6 7 8 9 9 10 9 8 9 9 9 9 9 9 10 11 12 13 14 15 17 18 20 22 22 21 18 19 20 20 19 20 17 22 26 25 30 29
1 4 3 2 12 5 10 9 9 9 9 8 10 9 10 10 9 10 9 10 11 12 12 13 14 15 16 17 20 21 21 21 20 18 18 20 18 18 18 17 13 20 23 25
Wind_Direction
216 226 236 243 235 243 255 266 274 282 243 227 239 254 239 214 234 237 225 229 221 202 112 108 39 14 358 352 341 335 326 319 311 302 291 276 264 250 242 235 241 229 225 216
230 237 246 257 268 275 274 258 250 264 284 247 252 253 254 241 235 235 230 194 184 170 169 82 22 10 3 352 346 334 328 320 310 298 290 282 277 271 266 237 236 237 228 217
235 236 268 247 258 269 269 266 258 254 280 277 262 261 248 237 225 227 208 153 139 157 127 21 8 3 352 347 344 334 327 319 310 300 293 283 269 263 265 256 232 237 227 217
256 256 233 233 224 220 250 262 267 276 256 248 238 252 256 211 185 177 156 160 152 128 49 18 359 355 347 344 338 333 327 319 310 304 294 287 278 274 254 243 228 230 239 227
229 237 239 230 232 223 253 251 261 240 259 263 246 258 263 165 177 184 160 151 118 91 36 12 3 352 340 342 337 333 327 320 315 309 295 286 274 269 266 259 241 222 222 226
261 283 296 244 228 230 270 305 243 251 245 239 242 252 254 178 187 174 145 121 104 58 29 10 2 350 346 343 337 333 329 323 319 313 303 289 275 268 266 256 252 218 217 215
226 222 245 239 216 207 226 243 222 221 218 246 229 232 234 168 151 155 134 115 102 43 30 8 2 356 350 345 343 339 333 324 324 318 308 295 282 268 258 255 256 235 215 207
221 199 196 196 213 202 204 197 224 213 210 244 274 248 95 46 77 83 83 99 83 42 25 10 4 360 351 347 345 340 336 331 328 321 317 307 295 274 260 249 246 250 217 212
236 230 186 188 214 222 213 213 224 266 287 272 177 131 109 118 117 119 103 87 58 35 14 6 1 3 354 350 347 341 337 335 333 327 328 317 317 300 260 245 230 229 216 214
300 245 227 168 227 222 220 239 225 210 257 237 210 191 167 163 159 129 100 68 34 14 6 1 1 2 359 354 350 346 339 339 336 333 337 332 333 329 322 242 222 219 218 215
257 260 200 177 212 248 219 200 244 234 293 288 262 95 84 151 118 115 97 49 23 5 3 354 1 0 0 357 355 353 345 345 344 341 344 346 345 341 343 293 241 229 225 224
193 273 213 210 177 215 275 286 256 264 215 239 281 306 123 112 108 74 50 37 16 6 4 359 2 2 3 360 355 357 354 350 347 346 348 356 350 345 346 351 318 252 232 225
172 213 221 195 200 207 239 239 289 302 280 277 287 358 101 133 191 174 341 58 12 13 9 4 1 4 6 359 356 359 360 353 351 354 357 4 352 347 348 350 346 262 236 209
304 255 251 271 360 69 190 206 218 207 266 276 271 281 149 333 351 355 30 39 22 22 8 6 1 1 5 0 357 1 1 357 354 2 1 9 349 348 358 359 354 9 348 199
218 227 249 320 35 11 266 222 216 241 249 264 287 301 333 16 356 27 11 15 16 18 9 9 2 1 2 1 360 2 1 359 358 6 7 4 354 0 7 13 7 14 19 39
201 221 238 226 240 260 266 254 251 261 268 267 278 283 36 354 5 59 48 34 28 23 12 4 1 2 3 2 0 360 2 0 5 12 12 4 2 11 14 14 24 38 25 40
194 185 204 235 192 264 255 278 287 278 252 288 276 358 7 24 51 40 43 40 31 30 17 8 5 5 3 1 358 4 5 6 14 15 11 8 11 15 20 18 26 36 34 44
194 187 179 188 187 227 77 62 17 341 347 4 336 358 12 64 74 60 46 43 34 29 23 15 7 10 9 1 4 10 12 20 20 18 12 13 14 19 23 26 30 29 39 47
203 189 183 194 217 105 161 52 40 15 64 49 334 335 351 143 140 72 58 53 41 28 15 28 16 14 14 9 12 16 22 26 24 18 15 14 19 23 28 30 33 35 37 37
154 279 237 196 248 237 83 36 38 54 231 25 356 325 295 191 245 81 57 50 42 34 27 23 28 21 11 24 23 26 27 25 20 19 18 21 24 28 33 33 35 39 44 44
176 195 224 201 239 104 217 345 46 245 51 23 16 352 248 159 68 89 68 52 38 35 29 30 33 23 21 21 27 32 29 27 23 24 27 27 29 30 30 34 38 38 42 45
182 185 198 224 232 200 356 137 277 25 63 69 64 59 80 98 95 83 68 51 38 30 28 34 38 34 33 28 26 26 38 29 32 32 32 33 30 30 32 32 33 36 38 42
221 15 60 8 56 89 47 76 74 50 91 82 88 79 90 88 81 75 69 58 41 26 29 43 43 39 34 31 27 24 13 29 31 35 39 37 39 34 34 37 33 32 34 35
154 156 97 182 133 119 102 92 80 84 98 95 93 89 95 100 97 91 76 65 56 40 37 39 42 39 36 29 28 26 20 24 31 33 34 35 38 41 40 39 40 39 33 33
105 155 133 79 132 124 113 111 113 108 106 103 94 100 107 107 99 96 88 78 67 57 49 48 44 41 34 30 27 24 23 24 31 34 31 33 34 34 44 48 46 46 46 42
195 143 210 132 155 76 132 133 132 126 120 123 117 114 107 106 106 100 91 82 74 65 54 52 47 41 33 30 29 24 23 26 29 32 32 29 30 30 33 32 46 45 41 45
Height
750 757 742 738 729 729 727 726 717 696 681 696 703 699 689 690 693 695 695 699 702 709 716 723 729 730 731 731 731 730 729 728 726 724 722 719 716 714 713 714 716 718 721 723
749 754 732 729 733 738 735 727 723 714 699 700 703 697 689 683 685 686 687 691 702 713 718 724 728 730 731 733 733 732 730 727 725 723 721 717 714 709 705 705 708 712 714 717
729 728 738 740 746 763 753 744 730 738 725 702 703 698 685 674 674 678 684 689 705 715 721 724 726 729 731 732 734 733 731 728 724 722 719 715 710 706 702 699 700 705 706 710
726 721 733 745 747 753 761 743 733 736 726 718 690 701 669 660 679 686 691 701 707 717 722 724 727 728 730 731 733 732 731 727 724 720 717 714 708 698 692 692 690 695 699 702
725 736 736 732 732 742 747 741 744 736 727 708 696 695 670 663 682 690 693 699 712 721 724 726 729 730 731 732 732 731 729 726 722 719 715 711 706 700 692 685 680 683 688 692
743 745 738 725 735 749 754 752 736 724 718 719 709 694 673 673 670 681 690 702 718 723 724 728 731 733 733 733 733 731 728 724 720 715 711 706 701 696 688 679 673 671 678 683
739 735 742 737 742 744 753 759 749 741 732 714 681 688 689 671 663 673 692 708 721 723 727 732 734 734 734 734 732 730 728 722 716 711 705 700 694 688 683 676 668 663 672 676
729 727 730 731 732 732 735 745 733 727 727 713 691 701 700 686 684 698 704 714 722 725 731 734 735 735 735 733 732 730 725 717 713 706 698 691 684 678 673 668 663 662 664 668
714 706 696 704 709 714 729 724 712 711 704 700 700 695 698 702 706 705 713 718 723 727 733 735 736 737 736 734 731 729 723 716 709 701 691 684 674 667 660 655 655 656 658 662
717 715 698 699 704 703 708 705 717 718 715 699 678 684 686 708 707 707 717 722 726 729 733 735 736 736 736 735 732 729 725 718 709 699 688 679 667 657 647 646 648 650 653 657
714 710 715 708 705 709 702 714 713 714 709 703 694 696 704 704 706 714 722 726 730 735 738 739 737 737 738 737 733 730 727 717 707 697 686 676 665 656 650 645 645 645 648 651
712 713 712 705 710 710 707 699 708 721 710 715 701 704 706 706 715 721 725 730 734 739 742 741 739 740 740 739 736 732 727 718 711 701 689 678 671 663 654 646 646 644 645 645
713 717 710 710 712 707 706 702 705 707 709 707 710 707 706 715 713 713 715 727 733 741 745 744 743 743 744 744 740 734 726 720 713 702 692 681 677 671 662 653 648 645 646 646
723 709 703 708 705 698 713 710 711 716 720 708 702 696 708 708 713 717 719 731 737 747 751 752 750 749 749 747 743 736 729 724 716 705 697 684 686 680 669 661 657 647 644 645
720 718 711 711 713 711 710 709 711 713 712 718 711 711 708 718 724 728 735 742 747 756 758 758 757 756 754 751 746 740 736 729 722 710 703 696 693 686 677 663 656 654 650 643
721 715 718 714 714 716 716 711 710 711 711 712 711 714 723 727 729 742 750 753 757 763 765 766 764 763 759 755 751 746 741 735 727 717 710 707 699 689 678 675 669 656 663 650
723 724 722 711 720 719 717 712 709 708 706 711 715 722 733 743 757 762 762 765 769 771 772 771 770 767 764 761 757 751 746 740 731 724 720 714 706 697 689 684 676 665 671 663
725 724 724 713 724 724 725 729 731 731 723 730 733 737 747 761 769 773 775 776 776 776 777 776 775 772 768 766 760 755 751 744 737 731 727 721 715 708 701 695 691 687 681 679
720 719 721 724 713 711 724 737 754 754 744 760 754 753 753 765 769 779 782 783 784 783 783 782 780 776 773 769 764 760 754 748 744 739 735 729 724 718 711 706 702 697 692 690
725 722 721 718 717 716 742 742 742 753 740 762 766 765 760 761 756 778 786 788 788 788 786 784 782 780 776 773 769 764 759 755 751 747 742 737 731 726 721 717 712 709 706 706
729 729 723 716 714 743 754 745 749 751 760 771 774 774 761 765 777 789 792 793 792 790 788 787 784 783 780 776 773 768 766 762 759 755 749 744 739 735 731 727 723 720 718 714
724 720 720 709 720 729 755 748 755 772 773 776 779 780 779 783 788 793 795 796 795 793 790 789 788 785 782 779 776 772 769 767 764 760 756 751 746 743 739 735 732 729 725 723
733 741 730 744 748 767 766 771 775 773 774 781 783 786 787 790 794 797 799 798 798 797 795 792 790 789 786 784 781 777 773 770 768 765 761 759 756 752 748 744 740 736 734 732
736 738 743 747 763 767 772 774 777 778 782 785 787 790 793 796 798 800 801 802 803 802 799 797 794 792 790 789 787 783 779 774 771 769 766 764 762 760 758 755 752 750 747 744
726 735 744 760 766 767 772 775 780 784 788 790 792 794 796 797 799 800 803 805 806 806 805 803 801 799 798 796 792 788 784 780 776 774 772 769 767 766 764 764 763 761 760 758
730 744 741 736 750 755 770 778 782 786 789 791 793 796 799 801 803 805 806 807 808 809 809 808 807 806 805 802 798 795 792 787 784 780 778 777 774 772 770 769 769 768 767 766